Theta_e
323 324 324 325 326 327 327 327 327 328 327 326 327 326 325 325 325 325 324 321 320 319 319 318 318 319 318 318 317 317 315 313 309 295 295 293 293 293 292 293 293 293 293
314 322 322 324 325 325 325 326 327 327 327 326 325 325 325 324 324 324 323 320 319 317 318 317 317 316 317 315 314 311 310 309 307 302 292 291 291 291 291 291 291 292 291
311 314 317 319 322 323 324 325 325 326 325 324 323 323 322 322 321 323 321 318 318 318 318 317 316 313 309 308 307 307 304 301 301 297 290 290 289 290 288 288 287 287 290
309 312 314 316 320 320 321 321 322 322 321 321 321 321 319 316 316 313 314 316 316 315 312 312 310 309 307 305 303 302 299 297 295 292 288 288 289 287 287 286 286 281 283
306 309 313 314 316 316 316 315 315 316 317 317 317 314 314 313 311 311 311 313 308 304 303 304 302 295 296 301 301 298 297 291 289 288 287 288 287 286 286 282 286 281 283
305 308 308 310 310 309 309 309 308 308 309 309 309 308 307 302 300 302 306 306 303 301 297 294 294 291 294 295 296 296 297 294 288 288 287 287 286 284 282 282 281 279 279
302 304 305 305 304 304 304 303 302 306 304 304 304 303 302 300 298 299 298 303 300 298 294 293 292 292 292 293 292 291 290 294 295 291 286 285 285 285 284 283 283 282 280
300 301 300 300 299 297 297 298 298 299 300 299 296 297 296 295 296 296 295 298 296 294 294 292 291 290 291 291 288 286 285 286 287 288 286 286 286 285 284 283 281 281 279
296 296 295 297 296 294 295 296 294 294 292 292 291 291 292 290 294 295 294 291 290 290 290 292 291 290 291 290 285 284 284 284 289 290 289 289 289 288 285 279 281 279 271
293 294 293 294 294 295 293 291 289 290 288 289 287 288 288 288 293 294 293 290 288 288 287 287 287 289 290 290 285 283 281 282 282 281 282 284 284 284 284 282 281 278 278
291 290 290 292 291 292 290 288 288 288 288 287 287 286 287 288 291 293 293 290 289 288 287 286 287 291 290 289 287 283 282 283 284 283 280 278 278 278 278 279 278 274 277
290 289 289 290 290 290 289 288 288 288 287 286 286 286 286 287 289 293 293 292 292 288 286 286 288 290 289 289 286 288 287 285 284 278 276 275 276 278 276 279 280 280 276
287 288 288 288 288 288 289 288 288 288 288 287 287 286 285 286 288 291 292 291 290 287 286 288 289 289 289 287 287 286 284 284 279 276 277 278 279 279 278 275 275 270 270
287 287 287 288 287 288 288 289 289 289 288 288 287 286 285 286 287 287 288 288 287 287 287 286 285 284 285 283 281 280 279 278 279 279 278 276 273 271 269 271 269 268 264
287 287 287 288 288 288 288 289 289 290 291 289 289 288 286 285 286 287 287 286 286 286 284 282 281 280 279 280 279 277 277 275 274 270 270 268 269 270 268 267 266 263 265
288 286 288 288 288 288 288 287 291 290 291 291 291 289 286 289 288 288 288 288 287 286 282 280 279 280 279 278 276 274 273 271 270 270 267 267 267 267 265 265 265 264 263
288 287 288 288 288 288 288 288 286 289 291 290 290 290 289 288 288 288 288 288 287 286 281 281 281 281 280 278 275 273 269 269 266 267 265 265 264 264 263 264 265 264 261
287 287 288 289 289 289 288 288 288 287 286 286 289 288 289 288 288 288 288 287 284 284 282 282 279 277 276 274 272 271 269 267 266 265 263 261 260 262 263 263 263 260 258
286 288 289 289 289 288 288 287 287 287 286 285 285 287 287 288 288 288 288 284 283 282 280 278 276 275 273 272 270 268 267 265 263 262 259 259 261 262 261 260 260 259 257
286 287 288 289 288 288 288 286 286 286 285 284 285 284 285 285 284 284 282 281 279 277 276 274 272 271 270 269 267 266 264 262 261 263 262 262 261 260 259 258 257 255 254
285 287 287 288 288 288 287 287 287 286 285 285 285 285 286 284 284 280 278 277 275 274 272 271 269 268 268 267 266 265 265 264 264 264 263 261 259 257 256 256 254 253 252
284 286 287 287 287 287 286 287 286 286 285 284 283 285 287 282 279 276 274 272 272 271 271 269 268 268 267 267 267 266 266 263 261 262 261 259 256 255 254 254 253 253 251
283 285 286 287 286 286 286 285 285 285 284 282 282 284 278 277 274 272 269 268 269 268 269 268 266 265 266 265 266 266 265 263 262 261 259 257 253 253 252 252 252 251 251
281 284 286 286 286 285 286 285 284 284 282 279 281 277 275 273 271 268 267 266 266 266 266 266 265 264 263 263 262 262 262 260 258 258 258 255 252 252 251 250 251 251 251
280 283 285 285 284 284 284 283 282 279 278 278 276 273 271 269 268 267 266 265 265 264 264 264 264 263 263 262 261 260 261 261 258 257 255 251 250 249 249 249 249 249 249
278 282 284 283 282 283 282 281 279 278 275 274 272 270 269 267 266 266 265 264 264 263 263 263 262 262 261 261 260 260 260 261 257 258 255 253 250 249 249 250 249 248 248
Wind_Speed
15 15 16 16 18 17 16 16 16 15 14 14 15 15 15 15 14 13 12 11 13 10 9 10 11 9 7 7 6 5 5 4 5 1 1 1 1 3 4 3 3 2 2
6 10 13 14 15 17 17 18 15 15 13 15 13 12 13 13 13 14 12 11 12 12 11 11 10 7 9 6 5 5 4 3 3 4 1 2 3 3 3 2 1 1 2
6 8 7 9 13 15 15 15 14 13 12 11 12 13 12 12 12 13 11 11 11 11 11 11 9 8 6 4 3 4 3 3 2 3 3 2 3 1 1 1 1 2 4
7 8 6 8 11 10 9 8 10 10 10 11 11 12 10 8 8 8 8 10 10 8 7 6 6 7 7 6 5 5 4 4 3 3 3 3 2 0 0 1 1 0 2
6 6 8 7 7 6 8 8 8 8 9 9 8 6 7 8 7 9 9 9 8 7 6 6 5 6 6 6 4 5 6 4 3 3 3 2 2 1 2 2 1 1 3
8 11 7 7 7 6 6 7 7 6 6 7 8 8 7 5 10 13 11 9 9 10 8 6 6 7 7 9 11 10 7 6 4 4 2 2 2 2 1 2 1 3 2
8 8 8 7 7 8 7 6 6 8 6 7 8 8 7 5 9 12 12 8 9 8 9 8 6 4 7 10 16 16 13 11 7 5 4 2 3 1 3 2 3 2 1
10 9 7 8 8 7 6 9 6 5 6 6 6 6 7 4 8 12 13 9 7 8 8 8 8 7 7 12 11 11 10 10 8 8 8 6 6 5 5 3 2 1 3
10 9 9 9 9 8 9 8 5 6 5 5 5 7 8 6 8 12 11 8 9 7 6 7 8 8 12 17 13 13 11 10 15 21 19 18 18 16 10 3 5 4 3
8 10 7 8 10 10 8 8 3 4 6 6 5 4 8 8 12 14 12 8 9 7 6 7 9 9 15 16 12 12 12 6 7 6 7 11 11 12 13 8 5 4 2
6 6 7 8 8 8 7 4 7 8 7 7 7 5 6 8 9 14 15 9 9 8 8 7 6 15 16 17 15 8 9 10 11 8 6 5 3 3 3 4 4 4 2
6 6 7 7 7 8 11 9 10 10 9 8 8 5 4 5 9 14 14 13 16 11 9 7 9 19 20 21 14 21 20 13 8 6 5 3 3 3 1 3 4 4 1
5 7 7 7 8 9 11 11 11 10 9 8 8 7 6 4 5 13 17 18 17 11 9 15 22 22 24 19 19 18 12 7 6 5 5 4 3 2 3 4 3 4 2
5 5 5 8 8 7 7 7 8 11 10 10 9 9 7 6 7 8 9 11 18 14 20 13 14 14 15 14 10 9 6 6 6 6 5 2 2 2 3 2 2 3 3
6 6 6 6 9 8 7 7 8 7 9 12 10 10 12 10 9 13 14 11 11 15 15 10 8 8 8 8 7 6 7 6 6 3 4 3 2 2 2 2 2 2 2
8 4 8 7 7 7 8 6 6 8 11 10 13 12 4 12 20 20 19 22 26 29 10 10 9 8 9 9 8 8 6 6 4 4 3 3 2 2 1 2 2 2 2
12 6 5 7 8 8 8 9 9 7 13 14 16 16 17 20 23 23 24 25 27 19 8 8 9 8 8 8 8 7 4 3 4 5 4 2 2 1 3 2 2 2 2
10 8 7 8 8 8 8 8 7 10 10 7 12 14 19 24 24 25 26 24 12 6 7 9 8 8 8 8 7 7 7 5 4 5 4 3 3 2 2 2 2 2 0
9 8 7 7 7 8 7 7 8 7 7 8 8 10 18 24 24 25 26 10 11 8 8 8 8 8 8 7 7 7 7 5 4 5 3 3 3 3 2 2 2 3 1
10 14 8 7 8 9 8 9 9 9 9 9 9 10 12 16 14 14 7 8 9 7 8 8 7 7 7 8 7 7 6 4 3 3 3 4 3 3 3 2 1 1 1
9 8 10 7 8 10 10 10 9 10 10 10 10 12 22 14 13 10 8 8 9 8 8 8 8 8 8 8 8 8 7 5 4 4 4 3 3 3 2 2 2 1 1
11 9 8 9 8 10 10 11 11 11 12 12 10 13 26 9 10 9 9 7 8 8 7 8 7 7 7 7 8 8 8 6 4 4 4 4 3 3 3 2 0 1 1
11 11 9 9 8 11 11 10 11 12 12 12 14 14 11 10 11 10 10 9 9 9 8 8 9 8 6 5 5 6 7 6 6 5 5 4 3 3 3 2 2 1 2
12 12 11 9 8 9 10 10 10 12 13 13 14 12 11 11 12 14 12 10 10 9 8 8 8 10 9 7 5 5 5 5 4 5 7 5 4 3 2 2 1 1 1
11 11 9 9 9 10 10 10 10 10 12 13 11 11 11 11 11 12 12 11 11 10 9 8 7 11 11 11 8 8 8 9 6 6 4 5 5 5 3 2 2 1 1
13 12 9 7 8 10 10 10 11 11 12 11 11 12 13 12 11 12 12 13 12 11 11 8 9 11 11 8 8 9 8 8 6 6 4 4 4 3 3 4 4 2 2
Wind_Direction
210 213 213 216 216 213 215 215 213 209 200 198 197 195 195 199 198 198 198 184 194 196 192 199 207 201 207 209 207 210 209 194 227 149 139 160 106 61 65 63 48 57 358
264 226 219 217 221 218 213 213 210 208 200 196 193 192 194 196 197 201 198 179 188 193 196 198 208 199 207 194 193 187 178 171 179 176 161 123 68 63 87 116 166 162 186
242 241 222 213 214 221 218 213 206 201 200 195 180 192 194 195 193 197 191 181 187 197 200 198 196 181 183 159 168 169 135 105 107 127 124 96 77 97 96 191 177 214 230
223 249 221 225 213 209 208 207 203 195 185 192 192 190 188 175 174 167 167 175 189 192 179 177 163 168 162 165 168 150 130 136 135 101 96 106 151 176 151 104 296 324 285
250 232 249 219 231 208 199 195 190 191 187 180 172 165 158 162 165 172 177 181 162 143 126 125 110 99 121 156 154 146 140 116 100 91 102 125 116 140 189 205 86 325 324
224 231 211 224 194 204 196 168 160 160 161 152 155 158 168 167 173 175 170 159 149 144 138 119 113 110 104 99 101 105 133 140 137 121 135 134 126 106 48 88 99 35 358
228 229 206 190 209 193 169 170 179 178 152 167 161 160 172 161 163 158 142 144 143 139 136 132 117 113 118 111 93 86 70 83 97 128 125 108 116 112 109 65 46 55 285
224 224 203 192 199 192 187 172 165 163 165 154 141 127 121 118 143 138 124 121 118 125 136 136 135 139 140 126 109 93 75 61 66 85 85 79 81 60 72 95 106 293 308
219 214 204 201 195 187 187 185 151 142 135 132 138 131 135 127 138 132 118 115 122 118 119 127 132 135 143 130 118 111 94 83 79 86 88 82 77 68 58 90 53 38 343
224 223 194 187 189 190 169 146 118 112 119 117 104 118 129 132 150 142 132 127 120 120 104 108 124 136 134 133 123 122 111 113 104 78 74 73 72 71 67 60 58 63 37
245 198 187 183 175 161 139 125 127 122 120 125 128 123 129 150 154 148 146 140 141 137 130 122 130 133 126 120 112 112 120 126 113 110 107 94 75 79 76 70 70 110 71
223 205 184 170 168 163 146 142 135 139 140 141 139 126 132 139 149 153 145 138 147 139 135 127 126 118 116 113 108 119 121 116 115 110 98 97 115 98 116 94 79 65 72
208 194 186 169 172 159 156 159 145 153 155 159 156 152 142 132 122 131 129 128 128 120 126 124 119 116 113 105 117 122 122 123 115 107 121 120 120 151 109 85 56 57 339
234 200 177 175 162 156 159 168 167 163 160 164 164 155 148 141 139 138 132 124 118 116 119 115 117 115 116 112 107 103 106 113 125 129 126 117 73 44 58 78 72 9 67
257 240 209 204 173 171 177 170 180 188 181 170 172 162 157 163 169 154 149 145 142 136 126 119 125 128 128 124 116 107 101 90 99 85 88 90 58 66 54 42 87 45 84
263 234 228 217 200 173 170 151 169 160 158 162 154 156 132 143 151 153 152 147 143 140 136 142 147 149 144 137 131 118 101 93 86 89 84 86 107 119 108 10 82 90 77
259 236 214 209 214 189 184 175 162 158 155 153 153 152 151 151 150 151 150 148 150 147 142 149 150 151 142 136 136 127 114 111 103 100 102 107 100 73 85 58 52 69 28
268 230 212 197 203 203 193 180 175 169 165 156 162 154 150 152 152 151 149 143 155 152 148 147 138 135 136 134 135 126 121 112 110 117 112 109 92 100 65 57 45 93 44
284 254 218 202 196 191 183 172 167 166 157 147 135 144 152 150 149 151 154 152 156 150 141 132 135 136 134 132 125 114 119 127 125 122 118 123 102 94 81 72 58 65 79
267 245 222 210 194 182 181 177 170 162 161 160 161 161 152 146 156 162 151 143 135 137 138 134 130 128 127 126 120 116 113 116 124 121 129 114 104 107 109 122 159 164 234
270 258 217 211 204 193 181 184 181 171 167 168 167 168 167 160 160 154 145 144 137 138 138 137 133 131 135 133 131 127 130 136 136 139 132 125 118 113 134 175 166 143 89
279 268 229 215 198 194 193 182 177 174 170 164 155 165 168 145 143 143 130 124 117 115 122 129 124 125 130 139 136 133 137 142 140 142 140 135 126 139 158 157 90 81 54
276 268 237 213 204 196 189 187 178 177 171 163 162 159 154 152 144 138 131 127 118 117 121 122 124 117 110 106 108 126 142 152 156 154 147 138 145 150 142 144 157 70 63
267 264 246 225 204 201 196 184 185 177 167 166 166 154 156 151 145 136 130 126 117 113 117 119 123 128 121 114 109 105 114 125 135 143 139 142 152 139 124 124 144 123 156
273 257 234 216 203 195 188 186 177 167 167 166 155 147 141 133 137 131 132 129 123 122 119 121 122 126 126 131 131 134 147 139 143 142 136 134 148 149 154 154 175 178 138
271 260 240 210 200 198 194 187 180 168 163 161 154 145 137 135 138 132 134 133 126 123 125 124 130 129 132 134 140 147 158 159 157 165 155 146 148 183 169 183 194 183 194